Simultaneous Nadir Overpasses (SNOs) Predictions

Prediction of SNOs between AURA and NPP Satellite Orbit:

Table of predicted SNOs for the next 14.0 days since TLE Epoch: 5/15/2020
Index Date (AURA) Time (AURA) Lat,Lon (AURA) SZA (AURA ) Date (NPP) Time (NPP) Lat,Lon (NPP) SZA (NPP ) Distance(km) Time Diff (sec)
1 05/16/2020 19:08:42 -79.33, -31.49 106.54 05/16/2020 19:07:28 -79.34, -31.43 106.50 1.40 74
2 05/16/2020 19:58:03 79.52, 137.40 73.19 05/16/2020 19:58:07 79.51, 137.31 73.20 2.10 4
3 05/19/2020 11:25:10 -79.36, 84.58 107.15 05/19/2020 11:24:22 -79.36, 84.56 107.11 0.42 48
4 05/19/2020 12:14:28 79.66,-105.73 72.42 05/19/2020 12:14:57 79.67,-105.60 72.37 2.84 29
5 05/22/2020 03:41:37 -79.43,-159.11 107.76 05/22/2020 03:41:15 -79.42,-159.19 107.73 1.58 22
6 05/22/2020 04:30:55 79.71, 10.58 71.80 05/22/2020 04:31:50 79.72, 10.67 71.75 1.85 55
7 05/24/2020 19:08:43 79.20, 147.64 72.10 05/24/2020 19:07:29 79.22, 147.71 72.13 2.80 74
8 05/24/2020 19:58:02 -79.52, -42.56 108.39 05/24/2020 19:58:06 -79.51, -42.67 108.37 2.30 4
9 05/27/2020 11:25:06 79.41, -95.11 71.36 05/27/2020 11:24:18 79.41, -95.02 71.37 1.95 48




NCC Satellite Simultaneous Nadir Overpasses (SNOs) Prediction Service
